Location: Berg
(47.2344°N, 9.5296°E)
Time: 22:08:17
(UTC+00:00)

X-37B - Pass Details

Date: 24 January 2021
Orbit: 383 x 391 km, 45.0° (Epoch: 27 February)

Event Time Altitude Azimuth Distance (km) Brightness Sun altitude
Rises 16:48:49 0° 244° (WSW) 2,266 7.1 -6.5°
Reaches altitude 10° 16:50:56 10° 237° (WSW) 1,415 5.0 -6.8°
Maximum altitude 16:53:57 41° 165° (SSE) 579 1.5 -7.3°
Drops below altitude 10° 16:57:00 10° 94° (E) 1,422 2.9 -7.8°
Enters shadow 16:57:11 - 93° (E) 1,493 3.0 -7.8°
